Regional Weather Roundup
Issued by NWS

Home | Current Version | Previous Version | Graphics & Text | Print | Product List | Glossary On
Versions: 1 2 3 4 5 6 7 8 9 10 11 12 13 14 15 16 17 18 19 20 21 22 23 24 25 26 27 28 29 30 31 32 33 34 35 36 37 38 39 40 41 42 43 44 45 46 47 48 49 50
000
ASUS45 KBOU 071407
RWRCO

WEATHER ROUNDUP FOR COLORADO
NATIONAL WEATHER SERVICE DENVER/BOULDER CO
700 AM MST SUN FEB 07 2016

NOTE: "FAIR" INDICATES FEW OR NO CLOUDS BELOW 12000 FEET WITH NO
SIGNIFICANT WEATHER AND/OR OBSTRUCTIONS TO VISIBILITY.

COZ001>005-013-030-031-071500-
...NORTHWEST COLORADO...

CITY           SKY/WX    TMP DP  RH WIND       PRES   REMARKS
CRAIG          CLOUDY    -2  -5  87 CALM      30.43R
HAYDEN         CLOUDY     9   3  78 N3        30.40R
MEEKER         CLOUDY    10   5  80 CALM      30.43R
MOUNT WERNER   NOT AVBL
STEAMBOAT SPGS CLOUDY    10   7  88 W3        30.40R
WALDEN         CLEAR     21  12  68 W14       30.28R WCI   8
$$

COZ006>008-011-071500-
...WEST CENTRAL VALLEYS...

CITY           SKY/WX    TMP DP  RH WIND       PRES   REMARKS
GRAND JUNCTION CLOUDY     9   7  92 E5        30.51R WCI   1
MONTROSE       CLOUDY    14   9  80 S3        30.49R
EAGLE          PTCLDY     3   0  85 CALM      30.46R
RIFLE          CLOUDY     8   3  80 CALM      30.50R
DELTA          CLOUDY    15  12  88 CALM      30.50R
NUCLA          NOT AVBL
$$

COZ017>023-064>068-071500-
...SOUTHWEST COLORADO...

CITY           SKY/WX    TMP DP  RH WIND       PRES   REMARKS
DURANGO        CLOUDY     4   2  91 E3        30.37R
CORTEZ         CLOUDY    13   8  81 NE8       30.39F WCI   2
PAGOSA SPRINGS CLOUDY   N/A N/A N/A CALM      30.34F
TELLURIDE      CLOUDY    22  13  67 SE6       30.43S WCI  15
WOLF CREEK PAS CLOUDY    21   7  53 W12G21    30.38S WCI   9
$$

COZ009-010-012-014-032>034-037-058>063-071500-
...CENTRAL COLORADO...

CITY           SKY/WX    TMP DP  RH WIND       PRES   REMARKS
ASPEN          CLOUDY    10   6  84 E3        30.39S
BUENA VISTA    CLOUDY    31  10  40 W15G21    30.26R WCI  20
COPPER MTN     NOT AVBL
BERTHOUD PASS  HAZE       9  -2  61 NW37G49   30.22F VSB 3/4 WCI -16
COTTONWOOD PAS CLOUDY    32   0  25 W28G55    30.22S WCI  18
GUNNISON       CLOUDY   -15 -26  58 CALM      30.51R
KREMMLING      CLOUDY     3  -2  78 E3        30.36S
LEADVILLE      CLOUDY    20   7  57 N15       30.32R WCI   6
MONARCH PASS   CLOUDY    12   7  79 MISG      30.40R
SALIDA         NOT AVBL
SUNLIGHT       CLOUDY    18  14  86 SW3         N/A
WILKERSON PASS CLOUDY    19   1  45 NW12G23   30.28R WCI   7
$$

COZ069>075-071500-
...SAN LUIS VALLEY/SANGRE DE CRISTO MOUNTAINS...

CITY           SKY/WX    TMP DP  RH WIND       PRES   REMARKS
ALAMOSA        CLOUDY    -1  -6  79 E6        30.33R WCI -13
LA VETA PASS   CLOUDY    23   7  50 MISG      30.27R
SAGUACHE       CLOUDY     5   1  85 W3        30.32R
$$

COZ035-036-038>040-071500-
...NORTHERN COLORADO FRONT RANGE...

CITY           SKY/WX    TMP DP  RH WIND       PRES   REMARKS
DENVER INTL AP CLOUDY    34  15  46 W9        30.19R WCI  27
DMNS CITY PARK   N/A     43  13  30 W23       30.20R
AURORA         MOCLDY    40  16  36 W21G35    30.18R
FRONT RANGE AP PTCLDY    28  14  54 W12       30.20  WCI  18
ERIE MUNI ARPT CLOUDY    31  14  49 CALM      30.19R
BOULDER MUN AP CLOUDY    41  12  30 W13G24    30.17R
CENTENNIAL     CLOUDY    37  15  40 NW16      30.19R
BROOMFIELD     PTCLDY    37  16  41 W12G17    30.19R
FORT COLLINS   CLOUDY    43  16  33 NW22G32   30.19R
LONGMONT       CLOUDY    35  14  40 W7        30.19R WCI  30
$$

COZ041-046-047-076>085-087-088-071500-
...PIKES PEAK/PALMER DIVIDE AND SOUTHERN FOOTHILLS...

CITY           SKY/WX    TMP DP  RH WIND       PRES   REMARKS
COLO. SPRINGS  CLOUDY    25  13  60 SW9       30.24R WCI  15
A. F. ACADEMY  CLOUDY    28   2  33 S6        30.21R WCI  21
SCHRIEVER AFB  FAIR      26   6  42 W6        30.23R WCI  19
ELLICOTT       NOT AVBL
FALCON         CLOUDY    30   4  33 NW10      30.22R WCI  21
FORT CARSON    CLOUDY    29  17  61 SW6       30.23R WCI  23
LIMON          CLOUDY    15  10  80 NW5       30.22R WCI   8
MONUMENT HILL  CLOUDY    25   5  42 SE6       30.22R WCI  18
TRINIDAD       CLOUDY    35  15  44 N9        30.22R WCI  28
$$

COZ042>045-048>051-090-091-071500-
...NORTHEAST COLORADO...

CITY           SKY/WX    TMP DP  RH WIND       PRES   REMARKS
GREELEY ARPT   CLOUDY    23  16  74 E8        30.22R WCI  14
AKRON          CLEAR     22  14  71 N12       30.21R WCI  10
BURLINGTON     CLEAR     23  14  68 NW13      30.20R WCI  11
WRAY           CLEAR     24  16  70 NW12      30.21R WCI  13
STERLING       CLEAR     21  16  79 CALM      30.23R
HOLYOKE        CLEAR     32  21  64 NW16      30.20R WCI  21
FORT MORGAN    CLEAR     26  15  63 N10       30.24R WCI  16
$$

COZ086-089-092>099-071500-
...SOUTHEAST COLORADO...

CITY           SKY/WX    TMP DP  RH WIND       PRES   REMARKS
PUEBLO         CLOUDY    27  19  72 CALM      30.24R
LA JUNTA       CLOUDY    31  21  66 CALM      30.25R
LAMAR          CLEAR     20  18  92 SW6       30.23R WCI  12
SPRINGFIELD      N/A     25  19  78 W10       30.22R WCI  15
$$



USA.gov is the U.S. government's official web portal to all federal, state and local government web resources and services.